Location: Shenandoah County Park
(38.9356°N, 78.4524°W)
Time: 04:56:04
(UTC-05:00)

N. Korean satellite - Visible Passes

Search period start: 10 December 2022 00:00
Search period end: 20 December 2022 00:00
Orbit: 420 x 452 km, 97.3° (Epoch: 09 December)

Date Brightness Start Highest point End Pass type
(mag) Time Alt. Az. Time Alt. Az. Time Alt. Az.
10 Dec 6.4 05:28:14 10° NNE 05:31:36 75° ESE 05:34:54 10° S visible
10 Dec 9.3 17:29:01 10° SSW 17:31:43 22° W 17:34:26 10° NW visible
11 Dec 9.1 04:49:48 10° NE 04:52:19 20° E 04:54:49 10° SE visible
11 Dec 7.8 06:22:17 10° NNW 06:24:41 18° WNW 06:27:03 10° WSW visible
12 Dec 6.2 05:42:20 10° N 05:45:40 65° WNW 05:48:55 10° SSW visible
12 Dec 9.7 17:43:53 10° SW 17:45:49 14° W 17:47:48 10° WNW visible
13 Dec 8.3 05:03:23 10° NNE 05:06:23 30° E 05:09:19 10° SSE visible
13 Dec 8.2 06:37:04 10° NW 06:38:33 12° WNW 06:40:00 10° W visible
14 Dec 6.7 05:58:21 28° NNW 05:59:31 39° WNW 06:02:36 10° SW visible
15 Dec 7.3 05:19:17 35° NE 05:20:14 48° E 05:23:24 10° S visible
15 Dec 8.6 17:17:09 10° SSW 17:20:12 31° W 17:23:18 10° NNW visible
16 Dec 9.6 04:40:01 13° E 04:40:40 14° E 04:42:24 10° SE visible
16 Dec 7.3 06:13:23 25° W 06:13:23 25° W 06:15:56 10° SW visible
17 Dec 6.3 05:33:58 79° SE 05:33:58 79° SE 05:37:08 10° S visible
17 Dec 9.4 17:31:15 10° SW 17:33:51 21° W 17:36:29 10° NW visible
18 Dec 9.0 04:54:28 20° E 04:54:28 20° E 04:56:48 10° SE visible
18 Dec 8.2 06:27:50 15° W 06:27:50 15° W 06:28:51 10° WSW visible
19 Dec 6.9 05:48:14 40° SW 05:48:14 40° SW 05:50:31 10° SSW visible
19 Dec 9.7 17:45:31 10° SW 17:47:21 14° W 17:49:13 10° WNW visible
